Flag for Vietnam Weather past 2 weeks in Ho Chi Minh, Vietnam

Now
86 °F

Thunderstorms. Passing clouds.


Feels Like: 97 °F
Forecast: 78 / 91 °F
Wind: 7 mph from South

Location: Ho Chi Minh

Current Time: Sep 3, 2015 at 8:30:43 PM

Latest Report: Sep 3, 2015 at 7:30 PM


Visibility: 5 mi

Pressure: 29.83 "Hg

Humidity: 75%

Dew point: 77 °F

Location of Ho Chi MinhLocation

Historic Weather in Ho Chi Minh — Graph

°F

Ho Chi Minh temperature yesterday

Maximum temperature yesterday: 93 °F (at 1:30 PM)
Minimum temperature yesterday: 77 °F (at 2:30 AM)
Average temperature yesterday: 83 °F

Past Weeks' High & Low Weather Summary

 TemperatureHumidityPressure
High95 °F (Aug 30, 1:00 PM)94% (Aug 21, 6:00 AM)29.89 "Hg (Aug 21, 6:00 AM)
Low75 °F (Aug 24, 7:00 PM)44% (Sep 3, 3:00 PM)29.65 "Hg (Aug 21, 4:00 PM)
Average84 °F74%29.78 "Hg
* Reported Aug 19 7:00 PM — Sep 3 7:30 PM, Ho Chi Minh, Weather by CustomWeather, © 2015

Note: Actual official high and low records may vary slightly from our data, if they occured in-between our weather recording intervals... More about our weather records

Advertising

Ho Chi Minh weather history for previous 24 hours

 ConditionsComfort  
Time TempWeatherWind HumidityBarometerVisibility
7:30 PM
Thu, Sep 3
86 °FThunderstorms. Passing clouds.7 mph75%29.83 "Hg5 mi
7:00 PM86 °FLight rain. Passing clouds.7 mph75%29.83 "Hg5 mi
6:30 PM88 °FThunderstorms. Passing clouds.6 mph70%29.80 "Hg5 mi
6:00 PM90 °FSprinkles. Scattered clouds.8 mph55%29.80 "Hg5 mi
5:30 PM90 °FScattered clouds.8 mph55%29.77 "HgN/A
5:00 PM93 °FScattered clouds.6 mph53%29.77 "HgN/A
4:30 PM91 °FScattered clouds.8 mph52%29.77 "HgN/A
4:00 PM93 °FScattered clouds.6 mph49%29.77 "HgN/A
3:30 PM95 °FScattered clouds.6 mph47%29.77 "HgN/A
3:00 PM95 °FScattered clouds.6 mph44%29.77 "HgN/A
2:30 PM93 °FScattered clouds.7 mph53%29.77 "HgN/A
2:00 PM93 °FScattered clouds.7 mph47%29.80 "HgN/A
1:30 PM93 °FScattered clouds.6 mph49%29.80 "HgN/A
1:00 PM91 °FPartly sunny.8 mph52%29.83 "HgN/A
12:30 PM95 °FPartly sunny.8 mph50%29.83 "HgN/A
12:00 PM90 °FPartly sunny.7 mph59%29.86 "HgN/A
11:30 AM91 °FPartly sunny.7 mph52%29.86 "HgN/A
10:30 AM90 °FScattered clouds.8 mph59%29.89 "HgN/A
10:00 AM90 °FBroken clouds.7 mph59%29.89 "HgN/A
9:30 AM90 °FScattered clouds.6 mph59%29.89 "HgN/A
9:00 AM88 °FScattered clouds.8 mph66%29.89 "HgN/A
8:30 AM86 °FScattered clouds.8 mph70%29.89 "HgN/A
8:00 AM86 °FScattered clouds.8 mph70%29.89 "HgN/A
7:30 AM84 °FScattered clouds.7 mph79%29.86 "HgN/A
7:00 AM82 °FScattered clouds.7 mph79%29.86 "HgN/A
6:30 AM82 °FScattered clouds.6 mph79%29.83 "HgN/A
6:00 AM81 °FPartly sunny.5 mph84%29.83 "HgN/A
5:30 AM81 °FPassing clouds.5 mph84%29.83 "HgN/A
4:30 AM81 °FPassing clouds.5 mph84%29.83 "HgN/A
4:00 AM81 °FPassing clouds.3 mph84%29.83 "HgN/A
3:30 AM81 °FPassing clouds.5 mph84%29.80 "HgN/A
3:00 AM81 °FPassing clouds.3 mph84%29.80 "HgN/A
2:30 AM79 °FPassing clouds.2 mph89%29.83 "HgN/A
2:00 AM81 °FPassing clouds.5 mph84%29.80 "HgN/A
1:30 AM81 °FPassing clouds.6 mph84%29.83 "HgN/A
1:00 AM81 °FPassing clouds.7 mph84%29.83 "HgN/A
12:30 AM81 °FPassing clouds.7 mph84%29.83 "HgN/A
12:00 AM81 °FPassing clouds.7 mph84%29.83 "HgN/A
11:30 PM
Wed, Sep 2
81 °FPassing clouds.7 mph84%29.83 "HgN/A
11:00 PM81 °FPassing clouds.7 mph84%29.83 "HgN/A
10:30 PM81 °FPassing clouds.5 mph79%29.83 "HgN/A
10:00 PM81 °FPassing clouds.6 mph79%29.86 "HgN/A
9:30 PM81 °FPassing clouds.3 mph79%29.83 "HgN/A
9:00 PM81 °FPassing clouds.3 mph79%29.83 "HgN/A
8:30 PM81 °FPassing clouds.7 mph79%29.83 "HgN/A
8:00 PM81 °FPassing clouds.7 mph74%29.80 "HgN/A
Weather by CustomWeather, © 2015

See weather overviewHow to use our weather pages